Other Surface Observations
Issued by NWS Upton, NY

Home | Current Version | Previous Version | Text Only | Print | Product List | Glossary On
Versions: 1 2 3 4 5 6 7 8 9 10 11 12 13 14 15 16 17 18 19 20 21 22 23 24 25 26 27 28 29 30 31 32 33 34 35 36 37 38 39 40 41 42 43 44 45 46 47 48 49 50
000
SXUS51 KOKX 250557
OSOOKX
NEW YORK CITY METROPOLITAN WEATHER ROUNDUP
NATIONAL WEATHER SERVICE NEW YORK NY
200 AM EDT SAT APR 25 2015


CITY           SKY/WX    TMP DP  RH WIND       PRES   REMARKS
CENTRAL PARK   FAIR      39  20  46 NW8       29.94F WCI  33
LAGUARDIA APRT FAIR      39  23  52 NW14      29.91F WCI  31
KENNEDY INTL   FAIR      40  20  44 NW13      29.92F WCI  32
NEWARK/LIBERTY FAIR      39  21  48 NW7       29.93F WCI  34
TETERBORO APRT FAIR      37  21  52 W3        29.92S
BNX BOT. GARD.   N/A     37  21  52 W8        29.93S WCI  31

>>>>>>>>>>>>>>>>>>>>>>>>>>>>>>>>> KEY <<<<<<<<<<<<<<<<<<<<<<<<<<<<<<<
> SKY/WX - SKY CONDITION/           : R : WCI - WIND CHILL INDEX    <
>          PRESENT WEATHER          : E : VSB - VISIBILITY IN MILES <
> TMP    - TEMPERATURE IN DEG F     : M : HX  - HEAT INDEX          <
> DP     - DEW POINT TEMPERATURE    : A : TC  - TEMPERATURE IN      <
> RH     - RELATIVE HUMIDITY        : R :       CELSIUS             <
> WIND   - DIRECTION/SPEED (MPH)    : K : VRB - VARIABLE WIND  DIR  <
> PRES   - PRESSURE (IN HG)         : S :                           <
>>>>>>>>>>>>>>>>>>>>>>>>>>>>>>>>> KEY <<<<<<<<<<<<<<<<<<<<<<<<<<<<<<<



USA.gov is the U.S. government's official web portal to all federal, state and local government web resources and services.